カタログに戻る

STARLINK-3291

運用中通信VLEO
NORAD 50175·PAYLOAD·🇺🇸 United States

打ち上げ Dec 18, 2021 から Vandenberg Space Force Base

Loading…

次のパス (今後24時間)

TLE

最新Source: CelesTrak SupGP

元期: Sep 14, 2026, 21:59 UTC

1 50175C 21125V   26257.91645833 -.00024810  00000+0 -70992-3 0  2573
2 50175  53.1585 109.6278 0001302  82.6947 215.1669 15.35406928    16

AllMySatでSTARLINK-3291をリアルタイム追跡

Download on the App Store